Orchard, CO (80649)

7:35 PM MDT on August 03, 2015 (GMT -0600)
Fort Morgan | | Change Station
CLOSE
Current Station
Airport
Location: Fort Morgan,
Elevation: 4570 ft
Nearby Weather Stations

Elev 4570 ft 40.33 °N, 103.80 °W | Updated 20 minutes ago

Clear
Clear
76 °F
Feels Like 76 °F
N
12
Wind Variable Wind from South

Today
High -- | Low -- °F
--% Chance of Precip.
Yesterday
High -- | Low -- °F
Precip. -- in
5:55 AM 8:08 PM
Waning Gibbous, 82% visible
Pressure 30.05 in
Visibility 10.0 miles
Clouds Clear
Dew Point 46 °F
Humidity 35%
Rainfall 0.00 in
Snow Depth Not available.
UV 0 out of 12
Pollen 7.70 out of 12
Air Quality Not available.
Flu Activity Not available.
METAR KFMM 040115Z AUTO 19010KT 10SM CLR 24/08 A3005 RMK AO2 T02430080

More Conditions Fewer Conditions

Pressure 30.05 in
Visibility 10.0 miles
Clouds Clear
Dew Point 46 °F
Humidity 35%
Rainfall 0.00 in
Snow Depth Not available.
UV 0 out of 12
Pollen 7.70 out of 12
Air Quality Not available.
Flu Activity Not available.
METAR KFMM 040115Z AUTO 19010KT 10SM CLR 24/08 A3005 RMK AO2 T02430080

More Conditions Fewer Conditions

10-Day Weather Forecast

×

Almanac

Astronomy

Aug. 03, 2015 Rise Set
Actual Time
Civil Twilight
Nautical Twilight
Astronomical Twilight
Moon
Length of Visible Light
Length of Day
Tomorrow will be .
, % of the Moon is Illuminated

Today's Extremes

State Highs State Lows

Community

WunderPhotos

Upload Photos

1,843,816 photos uploaded!

WunderBlogs® & News

Nearby

Air Quality

  Air Quality AQ Index Pollutant
Not available.

Snow Depth

Station Depth Elevation

Earthquake Activity

City Distance Mag. Time & Date
Minimum magnitude displayed is 2.5.

Coastal Water Temperatures

Place Temperature

Stations

Nearby Weather Stations

Station Location Temp. Windchill Dew Point Humidity Wind Precip. Elev Updated Type